| time (UTC) | temp C | wind direction | speed KPH | gust KPH | rain 1hr cm | rain 24hr cm | rain mn cm | humidity % | barometer mb |
| 20260504211548 | 16 | 226 | 11.3 | 16.1 | 0.00 | 0.05 | 0.05 | 55 | 1003.6 |
| 20260504210045 | 16 | 216 | 11.3 | 16.1 | 0.00 | 0.05 | 0.05 | 56 | 1003.9 |
| 20260504204544 | 16 | 249 | 12.9 | 25.7 | 0.00 | 0.05 | 0.05 | 55 | 1003.8 |
| 20260504203044 | 16 | 270 | 12.9 | 20.9 | 0.00 | 0.05 | 0.05 | 56 | 1004.0 |
| 20260504201539 | 16 | 253 | 12.9 | 16.1 | 0.00 | 0.05 | 0.05 | 55 | 1003.8 |
| 20260504200036 | 15 | 256 | 20.9 | 24.1 | 0.00 | 0.05 | 0.05 | 57 | 1003.8 |
| 20260504194531 | 15 | 253 | 20.9 | 29.0 | 0.00 | 0.05 | 0.05 | 59 | 1003.6 |
| 20260504193028 | 15 | 266 | 12.9 | 25.7 | 0.00 | 0.05 | 0.05 | 59 | 1004.0 |
| 20260504191527 | 15 | 218 | 11.3 | 17.7 | 0.00 | 0.05 | 0.05 | 63 | 1003.8 |
| 20260504190026 | 14 | 207 | 11.3 | 14.5 | 0.00 | 0.05 | 0.05 | 64 | 1004.0 |
| 20260504184521 | 13 | 173 | 8.0 | 12.9 | 0.00 | 0.05 | 0.05 | 66 | 1004.3 |
| 20260504183019 | 13 | 233 | 3.2 | 20.9 | 0.00 | 0.05 | 0.05 | 66 | 1004.5 |
| 20260504181515 | 13 | 258 | 14.5 | 27.4 | 0.00 | 0.05 | 0.05 | 69 | 1004.8 |
| 20260504180010 | 13 | 242 | 16.1 | 20.9 | 0.00 | 0.05 | 0.05 | 65 | 1004.6 |
| 20260504174508 | 11 | 251 | 17.7 | 27.4 | 0.00 | 0.05 | 0.05 | 77 | 1004.5 |
| 20260504173005 | 11 | 245 | 12.9 | 20.9 | 0.00 | 0.05 | 0.05 | 82 | 1004.6 |
| 20260504171500 | 10 | 245 | 4.8 | 4.8 | 0.00 | 0.05 | 0.05 | 87 | 1004.6 |
| 20260504081302 | 0 | 149 | 0.0 | 0.0 | 0.00 | 0.00 | 0.00 | 99 | 1006.2 |
| 20260504045721 | 1 | 148 | 0.0 | 1.6 | 0.00 | 0.00 | 0.00 | 89 | 1005.7 |
| 20260504044216 | 1 | 148 | 1.6 | 1.6 | 0.00 | 0.00 | 0.00 | 87 | 1005.6 |
| 20260504042714 | 1 | 149 | 0.0 | 1.6 | 0.00 | 0.00 | 0.00 | 86 | 1005.8 |
| 20260504041214 | 1 | 138 | 1.6 | 1.6 | 0.00 | 0.00 | 0.00 | 85 | 1005.7 |
| 20260504035710 | 2 | 138 | 0.0 | 1.6 | 0.00 | 0.00 | 0.00 | 84 | 1005.7 |
| 20260504034208 | 2 | 137 | 1.6 | 3.2 | 0.00 | 0.00 | 0.00 | 80 | 1005.5 |
| 20260504032705 | 3 | 132 | 1.6 | 3.2 | 0.00 | 0.00 | 0.00 | 79 | 1005.5 |
| 20260504031201 | 3 | 153 | 1.6 | 1.6 | 0.00 | 0.00 | 0.00 | 75 | 1005.5 |
| 20260504025657 | 4 | 126 | 1.6 | 4.8 | 0.00 | 0.00 | 0.00 | 70 | 1005.4 |
| 20260504024153 | 5 | 123 | 3.2 | 3.2 | 0.00 | 0.00 | 0.00 | 69 | 1005.4 |
| 20260504022648 | 5 | 155 | 1.6 | 4.8 | 0.00 | 0.00 | 0.00 | 69 | 1005.2 |
| 20260504021145 | 5 | 143 | 3.2 | 3.2 | 0.00 | 0.00 | 0.00 | 68 | 1005.3 |
| 20260504015640 | 5 | 114 | 1.6 | 3.2 | 0.00 | 0.00 | 0.00 | 68 | 1005.4 |
| 20260504014136 | 6 | 134 | 0.0 | 1.6 | 0.00 | 0.00 | 0.00 | 64 | 1005.4 |
| 20260504012633 | 6 | 172 | 0.0 | 1.6 | 0.00 | 0.00 | 0.00 | 61 | 1005.3 |
| 20260504011130 | 7 | 244 | 1.6 | 8.0 | 0.00 | 0.00 | 0.00 | 58 | 1005.1 |
| 20260504005631 | 7 | 223 | 1.6 | 11.3 | 0.00 | 0.00 | 0.00 | 56 | 1004.9 |
| 20260504004128 | 7 | 306 | 9.7 | 12.9 | 0.00 | 0.00 | 0.00 | 58 | 1004.9 |
| 20260504002624 | 7 | 259 | 9.7 | 11.3 | 0.00 | 0.00 | 0.00 | 57 | 1004.5 |
| 20260504001120 | 7 | 298 | 9.7 | 14.5 | 0.00 | 0.00 | 0.00 | 55 | 1004.5 |
| 20260503235620 | 7 | 253 | 11.3 | 14.5 | 0.00 | 0.00 | 0.00 | 54 | 1004.4 |
| 20260503234118 | 8 | 256 | 14.5 | 24.1 | 0.00 | 0.00 | 0.00 | 54 | 1004.1 |
| 20260503232613 | 8 | 319 | 8.0 | 11.3 | 0.00 | 0.00 | 0.00 | 52 | 1003.6 |
| 20260503231110 | 8 | 356 | 3.2 | 12.9 | 0.00 | 0.00 | 0.00 | 52 | 1003.6 |
| 20260503225608 | 8 | 346 | 8.0 | 22.5 | 0.00 | 0.00 | 0.00 | 54 | 1003.5 |
| 20260503224103 | 8 | 321 | 16.1 | 22.5 | 0.00 | 0.00 | 0.00 | 50 | 1003.4 |
| 20260503222600 | 9 | 277 | 19.3 | 25.7 | 0.00 | 0.00 | 0.00 | 50 | 1003.2 |
| 20260503221058 | 8 | 299 | 8.0 | 24.1 | 0.00 | 0.00 | 0.00 | 48 | 1003.3 |
| 20260503215555 | 10 | 331 | 14.5 | 24.1 | 0.00 | 0.00 | 0.00 | 47 | 1003.3 |
| 20260503214052 | 8 | 255 | 19.3 | 25.7 | 0.00 | 0.00 | 0.00 | 49 | 1003.1 |
| 20260503212550 | 9 | 287 | 17.7 | 20.9 | 0.00 | 0.00 | 0.00 | 48 | 1002.8 |